This is the latest recevied weather packets stored in our database for station/object KI4NG. If no packets are shown the sender has not sent any weather packets the latest 10 day(s).
| Time | Temp. | Humidity | Pressure | Rain* | Wind** | Luminosity | Snow |
|---|---|---|---|---|---|---|---|
| 1778021983 | 21.67° C | 54% | 1011.1 hPa | 0 mm | - | 84 W/m² | - |
| 1778021681 | 21.67° C | 53% | 1011 hPa | 0 mm | - | 94 W/m² | - |
| 1778021377 | 21.67° C | 52% | 1010.8 hPa | 0 mm | - | 88 W/m² | - |
| 1778021074 | 21.67° C | 52% | 1010.7 hPa | 0 mm | - | 209 W/m² | - |
| 1778020771 | 21.67° C | 53% | 1010.9 hPa | 0 mm | - | 215 W/m² | - |
| 1778020468 | 21.67° C | 53% | 1011 hPa | 0 mm | - | 86 W/m² | - |
| 1778020164 | 21.67° C | 54% | 1010.7 hPa | 0 mm | - | 136 W/m² | - |
| 1778019860 | 21.11° C | 55% | 1010.8 hPa | 0 mm | - | 269 W/m² | - |
| 1778019556 | 21.11° C | 55% | 1010.7 hPa | 0 mm | - | 209 W/m² | - |
| 1778019254 | 21.11° C | 55% | 1011 hPa | 0 mm | - | 114 W/m² | - |
| 1778018951 | 21.67° C | 56% | 1010.8 hPa | 0 mm | - | 114 W/m² | - |
| 1778018648 | 21.67° C | 54% | 1011 hPa | 0 mm | - | 345 W/m² | - |
| 1778018346 | 21.67° C | 58% | 1010.9 hPa | 0 mm | - | 340 W/m² | - |
| 1778018043 | 21.67° C | 56% | 1011.2 hPa | 0 mm | - | 364 W/m² | - |
| 1778017741 | 21.67° C | 58% | 1011.4 hPa | 0 mm | - | 359 W/m² | - |
| 1778017439 | 21.67° C | 58% | 1011.3 hPa | 0 mm | - | 414 W/m² | - |
| 1778017136 | 21.67° C | 59% | 1011.3 hPa | 0 mm | - | 428 W/m² | - |
| 1778016833 | 21.67° C | 59% | 1011.3 hPa | 0 mm | - | 434 W/m² | - |
| 1778016529 | 21.67° C | 60% | 1011.4 hPa | 0 mm | - | 439 W/m² | - |
| 1778016226 | 21.11° C | 60% | 1011.8 hPa | 0 mm | - | 475 W/m² | - |
| 1778015922 | 20.56° C | 61% | 1011.7 hPa | 0 mm | - | 218 W/m² | - |
| 1778015620 | 20.56° C | 62% | 1012 hPa | 0 mm | - | 210 W/m² | - |
| 1778015316 | 20.56° C | 59% | 1011.7 hPa | 0 mm | - | 248 W/m² | - |
| 1778015014 | 21.11° C | 57% | 1011.7 hPa | 0 mm | - | 275 W/m² | - |
| 1778014710 | 20.56° C | 60% | 1012.2 hPa | 0 mm | - | 347 W/m² | - |
* Rain latest hour (hover to see other rain measurements)
** Current wind speed in m/s (hover to see current wind gust speed)